AEE323 LGIR-LGAV

Flight info

Callsign AEE323
Flight time 0h 35m
Altitude 20000
Route EPALO UM749 MIL L617 SOREV
Aircraft A320/M-SDE3FGHIRWY/LB1

Departure

Time 2026-05-07 17:14
Airport Heraklion International Nikos Kazantzakis Airport (LGIR)

Arrival

Time 2026-05-07 17:49
Airport Athens Eleftherios Venizelos International Airport (LGAV)
Time Latitude Longitude Altitude Speed Heading
2026-05-07 16:30 35.33769 25.17409 93 ft 0 kts 276°
2026-05-07 17:01 35.33769 25.17406 91 ft 1 kts 276°
2026-05-07 17:02 35.33775 25.17386 93 ft 4 kts 306°
2026-05-07 17:02 35.33814 25.17370 93 ft 9 kts 353°
2026-05-07 17:02 35.33876 25.17376 92 ft 9 kts
2026-05-07 17:02 35.33917 25.17410 91 ft 7 kts 73°
2026-05-07 17:03 35.33912 25.17482 91 ft 11 kts 97°
2026-05-07 17:03 35.33906 25.17588 91 ft 14 kts 94°
2026-05-07 17:03 35.33898 25.17710 92 ft 14 kts 95°
2026-05-07 17:03 35.33891 25.17834 92 ft 15 kts 93°
2026-05-07 17:04 35.33882 25.17966 92 ft 17 kts 96°
2026-05-07 17:04 35.33870 25.18118 92 ft 18 kts 95°
2026-05-07 17:04 35.33859 25.18273 92 ft 19 kts 95°
2026-05-07 17:04 35.33847 25.18440 91 ft 20 kts 94°
2026-05-07 17:05 35.33836 25.18610 90 ft 18 kts 94°
2026-05-07 17:05 35.33826 25.18744 90 ft 12 kts 96°
2026-05-07 17:05 35.33820 25.18827 90 ft 8 kts 95°
2026-05-07 17:05 35.33818 25.18853 90 ft 0 kts 94°
2026-05-07 17:06 35.33818 25.18855 90 ft 0 kts 94°
2026-05-07 17:12 35.33817 25.18867 91 ft 5 kts 94°
2026-05-07 17:13 35.33824 25.18935 90 ft 11 kts 65°
2026-05-07 17:13 35.33868 25.19024 89 ft 14 kts 59°
2026-05-07 17:13 35.33907 25.19007 89 ft 10 kts 272°
2026-05-07 17:13 35.33920 25.18836 89 ft 45 kts 275°
2026-05-07 17:14 35.33965 25.18184 92 ft 108 kts 274°
2026-05-07 17:14 35.34042 25.17061 99 ft 154 kts 274°
2026-05-07 17:14 35.34151 25.15707 484 ft 165 kts 276°
2026-05-07 17:14 35.34360 25.14292 1025 ft 172 kts 292°
2026-05-07 17:15 35.35127 25.13201 1675 ft 172 kts 333°
2026-05-07 17:15 35.36245 25.12730 2325 ft 172 kts 344°
2026-05-07 17:15 35.37443 25.12382 2776 ft 182 kts 347°
2026-05-07 17:15 35.38726 25.12087 3196 ft 195 kts 349°
2026-05-07 17:16 35.40138 25.11763 3457 ft 220 kts 348°
2026-05-07 17:16 35.41738 25.11367 3760 ft 248 kts 347°
2026-05-07 17:16 35.43467 25.10844 4364 ft 262 kts 345°
2026-05-07 17:16 35.45237 25.10238 5228 ft 266 kts 344°
2026-05-07 17:17 35.47030 25.09603 6101 ft 270 kts 344°
2026-05-07 17:17 35.48844 25.08957 6970 ft 273 kts 344°
2026-05-07 17:17 35.50678 25.08309 7799 ft 275 kts 344°
2026-05-07 17:17 35.52527 25.07658 8662 ft 278 kts 344°
2026-05-07 17:18 35.54395 25.07003 9482 ft 281 kts 344°
2026-05-07 17:18 35.56280 25.06342 10285 ft 283 kts 344°
2026-05-07 17:18 35.58241 25.05660 10601 ft 304 kts 344°
2026-05-07 17:18 35.60323 25.04939 10787 ft 326 kts 344°
2026-05-07 17:19 35.62594 25.04152 11149 ft 340 kts 344°
2026-05-07 17:19 35.64861 25.03366 11771 ft 345 kts 343°
2026-05-07 17:19 35.67185 25.02559 12449 ft 348 kts 343°
2026-05-07 17:19 35.69524 25.01746 13141 ft 351 kts 343°
2026-05-07 17:20 35.71876 25.00890 13832 ft 354 kts 339°
2026-05-07 17:20 35.74183 24.99812 14445 ft 356 kts 338°
2026-05-07 17:20 35.76508 24.98717 15044 ft 358 kts 338°
2026-05-07 17:20 35.78847 24.97618 15637 ft 361 kts 338°
2026-05-07 17:21 35.81201 24.96514 16229 ft 363 kts 338°
2026-05-07 17:21 35.83571 24.95399 16804 ft 366 kts 337°
2026-05-07 17:21 35.85960 24.94272 17414 ft 369 kts 337°
2026-05-07 17:21 35.88361 24.93137 18039 ft 372 kts 337°
2026-05-07 17:22 35.90788 24.91990 18626 ft 375 kts 337°
2026-05-07 17:22 35.93230 24.90833 19176 ft 377 kts 337°
2026-05-07 17:22 35.95692 24.89667 19739 ft 380 kts 337°
2026-05-07 17:22 35.98171 24.88496 20317 ft 383 kts 337°
2026-05-07 17:23 36.00666 24.87318 20863 ft 386 kts 337°
2026-05-07 17:23 36.03181 24.86130 21386 ft 388 kts 338°
2026-05-07 17:23 36.05716 24.84932 21884 ft 391 kts 338°
2026-05-07 17:23 36.08262 24.83727 22372 ft 393 kts 338°
2026-05-07 17:24 36.10830 24.82512 22853 ft 396 kts 338°
2026-05-07 17:24 36.13409 24.81291 23318 ft 399 kts 338°
2026-05-07 17:24 36.16008 24.80060 23760 ft 401 kts 338°
2026-05-07 17:24 36.18620 24.78820 24056 ft 403 kts 338°
2026-05-07 17:25 36.21242 24.77571 24132 ft 407 kts 338°
2026-05-07 17:25 36.23918 24.76291 24153 ft 416 kts 338°
2026-05-07 17:25 36.26628 24.74997 24146 ft 418 kts 338°
2026-05-07 17:25 36.29343 24.73705 24147 ft 419 kts 338°
2026-05-07 17:26 36.32069 24.72411 24146 ft 419 kts 338°
2026-05-07 17:26 36.34791 24.71116 24148 ft 419 kts 338°
2026-05-07 17:26 36.37516 24.69817 24147 ft 419 kts 338°
2026-05-07 17:26 36.40243 24.68518 24150 ft 420 kts 338°
2026-05-07 17:27 36.42965 24.67219 24152 ft 420 kts 338°
2026-05-07 17:27 36.45655 24.65931 24148 ft 419 kts 337°
2026-05-07 17:27 36.48413 24.64609 24149 ft 419 kts 337°
2026-05-07 17:27 36.51136 24.63305 24149 ft 419 kts 337°
2026-05-07 17:28 36.53854 24.62004 24141 ft 419 kts 337°
2026-05-07 17:28 36.56541 24.60715 24139 ft 419 kts 337°
2026-05-07 17:28 36.59297 24.59393 24142 ft 419 kts 337°
2026-05-07 17:28 36.61975 24.58108 24137 ft 419 kts 337°
2026-05-07 17:29 36.64698 24.56801 24142 ft 419 kts 337°
2026-05-07 17:29 36.67454 24.55478 24140 ft 419 kts 337°
2026-05-07 17:29 36.70131 24.54190 24138 ft 418 kts 337°
2026-05-07 17:29 36.72844 24.52883 24138 ft 419 kts 337°
2026-05-07 17:30 36.75611 24.51730 24137 ft 420 kts 344°
2026-05-07 17:30 36.78465 24.50936 24143 ft 420 kts 345°
2026-05-07 17:30 36.81326 24.50158 24132 ft 420 kts 345°
2026-05-07 17:30 36.84180 24.49386 24134 ft 420 kts 345°
2026-05-07 17:31 36.87040 24.48614 24131 ft 420 kts 345°
2026-05-07 17:31 36.89899 24.47843 24131 ft 420 kts 345°
2026-05-07 17:31 36.92755 24.47072 24130 ft 420 kts 345°
2026-05-07 17:31 36.95612 24.46295 24134 ft 420 kts 345°
2026-05-07 17:32 36.98470 24.45515 24130 ft 420 kts 345°
2026-05-07 17:32 37.01324 24.44732 24134 ft 420 kts 345°
2026-05-07 17:32 37.04183 24.43952 24130 ft 420 kts 345°
2026-05-07 17:32 37.07078 24.43167 24132 ft 420 kts 345°
2026-05-07 17:33 37.09896 24.42404 24131 ft 420 kts 345°
2026-05-07 17:33 37.12733 24.41632 24133 ft 412 kts 345°
2026-05-07 17:33 37.15512 24.40877 24126 ft 406 kts 345°
2026-05-07 17:33 37.18268 24.40128 23226 ft 409 kts 345°
2026-05-07 17:34 37.21079 24.39360 22004 ft 417 kts 345°
2026-05-07 17:34 37.23909 24.38586 21294 ft 414 kts 345°
2026-05-07 17:34 37.26703 24.37830 20741 ft 406 kts 345°
2026-05-07 17:34 37.29446 24.37087 20197 ft 401 kts 345°
2026-05-07 17:35 37.32149 24.36349 19667 ft 396 kts 345°
2026-05-07 17:35 37.34832 24.35615 19146 ft 393 kts 345°
2026-05-07 17:35 37.37497 24.34885 18626 ft 391 kts 345°
2026-05-07 17:35 37.40142 24.34160 18062 ft 389 kts 345°
2026-05-07 17:36 37.42775 24.33439 17524 ft 385 kts 345°
2026-05-07 17:36 37.45381 24.32724 17010 ft 381 kts 345°
2026-05-07 17:36 37.47959 24.32015 16447 ft 378 kts 345°
2026-05-07 17:36 37.50511 24.31313 15916 ft 374 kts 346°
2026-05-07 17:37 37.53048 24.30616 15364 ft 371 kts 346°
2026-05-07 17:37 37.55561 24.29948 14810 ft 369 kts 349°
2026-05-07 17:37 37.58110 24.29618 14234 ft 368 kts 353°
2026-05-07 17:37 37.60660 24.29351 13624 ft 367 kts 354°
2026-05-07 17:38 37.63190 24.29085 13035 ft 364 kts 354°
2026-05-07 17:38 37.65705 24.28816 12457 ft 361 kts 354°
2026-05-07 17:38 37.68194 24.28548 11879 ft 358 kts 354°
2026-05-07 17:38 37.70669 24.28281 11317 ft 355 kts 354°
2026-05-07 17:39 37.73122 24.28018 10875 ft 350 kts 354°
2026-05-07 17:39 37.75495 24.27766 10749 ft 335 kts 354°
2026-05-07 17:39 37.77775 24.27523 10626 ft 322 kts 354°
2026-05-07 17:39 37.79966 24.27285 10503 ft 311 kts 354°
2026-05-07 17:40 37.82083 24.27057 10391 ft 300 kts 354°
2026-05-07 17:40 37.84137 24.26835 10175 ft 294 kts 353°
2026-05-07 17:40 37.86147 24.26613 10100 ft 290 kts 353°
2026-05-07 17:40 37.88172 24.26389 9688 ft 297 kts 353°
2026-05-07 17:41 37.90234 24.26164 9374 ft 294 kts 354°
2026-05-07 17:41 37.92259 24.25945 8986 ft 291 kts 354°
2026-05-07 17:41 37.94270 24.25729 8534 ft 289 kts 354°
2026-05-07 17:41 37.96202 24.25521 8383 ft 276 kts 353°
2026-05-07 17:42 37.98095 24.25316 8261 ft 263 kts 353°
2026-05-07 17:42 37.99869 24.24984 8020 ft 254 kts 341°
2026-05-07 17:42 38.01492 24.24157 7714 ft 250 kts 334°
2026-05-07 17:42 38.03078 24.23271 7333 ft 248 kts 334°
2026-05-07 17:43 38.04640 24.22410 6829 ft 248 kts 335°
2026-05-07 17:43 38.06172 24.21427 6328 ft 246 kts 323°
2026-05-07 17:43 38.07493 24.20075 5803 ft 244 kts 318°
2026-05-07 17:43 38.08771 24.18662 5245 ft 243 kts 310°
2026-05-07 17:44 38.09665 24.16863 4616 ft 243 kts 288°
2026-05-07 17:44 38.09970 24.14786 4271 ft 234 kts 272°
2026-05-07 17:44 38.10036 24.12805 4122 ft 214 kts 262°
2026-05-07 17:44 38.09601 24.11100 3864 ft 198 kts 235°
2026-05-07 17:45 38.08678 24.09902 3666 ft 186 kts 216°
2026-05-07 17:45 38.07656 24.08927 3398 ft 182 kts 217°
2026-05-07 17:45 38.06646 24.07959 3164 ft 181 kts 217°
2026-05-07 17:45 38.05636 24.06993 2922 ft 181 kts 217°
2026-05-07 17:46 38.04632 24.06033 2693 ft 181 kts 216°
2026-05-07 17:46 38.03638 24.05083 2443 ft 173 kts 216°
2026-05-07 17:46 38.02709 24.04198 2167 ft 161 kts 216°
2026-05-07 17:46 38.01844 24.03369 1937 ft 150 kts 217°
2026-05-07 17:47 38.01040 24.02587 1781 ft 144 kts 216°
2026-05-07 17:47 38.00249 24.01822 1565 ft 142 kts 217°
2026-05-07 17:47 37.99463 24.01060 1439 ft 143 kts 216°
2026-05-07 17:47 37.98674 24.00315 1231 ft 141 kts 214°
2026-05-07 17:48 37.97876 23.99585 1030 ft 141 kts 216°
2026-05-07 17:48 37.97092 23.98839 878 ft 141 kts 217°
2026-05-07 17:48 37.96313 23.98089 649 ft 140 kts 218°
2026-05-07 17:48 37.95540 23.97325 471 ft 140 kts 213°
2026-05-07 17:49 37.94755 23.96607 320 ft 139 kts 219°
2026-05-07 17:49 37.94066 23.95949 282 ft 102 kts 216°
2026-05-07 17:49 37.93630 23.95539 281 ft 57 kts 218°
2026-05-07 17:49 37.93475 23.95276 294 ft 30 kts 246°
2026-05-07 17:50 37.93450 23.95204 295 ft 0 kts 244°
2026-05-07 17:51 37.93450 23.95201 298 ft 2 kts 256°
2026-05-07 17:52 37.93467 23.95178 297 ft 5 kts 336°
2026-05-07 17:52 37.93493 23.95159 300 ft 4 kts 336°
2026-05-07 17:52 37.93506 23.95157 298 ft 0 kts 356°
2026-05-07 17:53 37.93519 23.95159 300 ft 5 kts 12°
2026-05-07 17:53 37.93556 23.95193 299 ft 8 kts 36°
2026-05-07 17:53 37.93611 23.95243 298 ft 11 kts 37°
2026-05-07 17:54 37.93682 23.95309 299 ft 14 kts 35°
2026-05-07 17:54 37.93769 23.95396 296 ft 17 kts 35°
2026-05-07 17:54 37.93852 23.95416 299 ft 9 kts 322°
2026-05-07 17:54 37.93883 23.95351 300 ft 8 kts 294°
2026-05-07 17:55 37.93877 23.95281 300 ft 8 kts 255°
2026-05-07 17:55 37.93872 23.95208 300 ft 8 kts 275°
2026-05-07 17:55 37.93900 23.95143 301 ft 7 kts 305°
2026-05-07 17:55 37.93913 23.95120 301 ft 0 kts 306°